Flag for Canada Weather past 2 weeks in Whitehorse, Yukon Territory, Canada

Now
37 °F

Fog.


Feels Like: 31 °F
Forecast: 37 / 41 °F
Wind: 8 mph from South

Location: Withehorse

Current Time: Oct 20, 2014 at 2:09:35 AM

Latest Report: Oct 20, 2014 at 1:00 AM


Visibility: 6 mi

Pressure: 29.17 "Hg

Humidity: 93%

Dew point: 36 °F

Location of WhitehorseLocation

Historic Weather in Whitehorse — Graph

°F

Whitehorse temperature yesterday

Maximum temperature yesterday: 41 °F (at 3:00 PM)
Minimum temperature yesterday: 34 °F (at 12:00 AM)
Average temperature yesterday: 37 °F

Past Weeks' High & Low Weather Summary

 TemperatureHumidityPressure
High52 °F (Oct 10, 4:00 PM)100% (Oct 14, 10:45 AM)30.12 "Hg (Oct 14, 10:45 AM)
Low23 °F (Oct 9, 1:00 AM)34% (Oct 6, 4:00 PM)29.10 "Hg (Oct 19, 8:00 PM)
Average37 °F79%29.63 "Hg
* Reported Oct 5 1:00 AM — Oct 20 1:00 AM, Whitehorse, Weather by CustomWeather, © 2014

Note: Actual official high and low records may vary slightly from our data, if they occured in-between our weather recording intervals... More about our weather records

Advertising

Whitehorse weather history for previous 24 hours

 ConditionsComfort  
Time TempWeatherWind HumidityBarometerVisibility
1:00 AM
Oct 20
37 °FFog.8 mph93%29.17 "Hg6 mi
12:00 AM36 °FFog.2 mph93%29.15 "Hg6 mi
11:00 PM
Oct 19
36 °FLight rain. Fog.3 mph93%29.12 "Hg3 mi
10:00 PM36 °FLight rain. Fog.2 mph93%29.11 "Hg3 mi
8:00 PM37 °FLight rain. Fog.7 mph87%29.10 "Hg3 mi
7:00 PM37 °FLight rain. Fog.5 mph93%29.12 "Hg5 mi
6:00 PM37 °FLight rain. Fog.5 mph100%29.14 "Hg5 mi
5:46 PM37 °FLight rain. Fog.No wind93%29.15 "Hg6 mi
5:00 PM37 °FLight rain. Fog.3 mph93%29.17 "Hg6 mi
4:00 PM39 °FCloudy.3 mph87%29.21 "Hg25 mi
3:00 PM41 °FLow clouds.3 mph81%29.22 "Hg40 mi
2:00 PM39 °FPartly sunny.2 mph87%29.28 "Hg40 mi
1:00 PM39 °FPartly sunny.7 mph87%29.32 "Hg40 mi
12:00 PM39 °FPartly sunny.10 mph87%29.33 "Hg40 mi
11:00 AM39 °FBroken clouds.9 mph87%29.34 "Hg40 mi
10:00 AM37 °FPartly sunny.10 mph87%29.36 "Hg40 mi
9:00 AM36 °FPassing clouds.10 mph93%29.39 "Hg30 mi
8:00 AM36 °FPartly cloudy.10 mph93%29.41 "Hg15 mi
7:00 AM36 °FPassing clouds.16 mph93%29.41 "Hg15 mi
6:00 AM36 °FPartly cloudy.12 mph93%29.41 "Hg15 mi
5:00 AM36 °FPassing clouds.13 mph93%29.41 "Hg8 mi
4:00 AM36 °FFog.7 mph93%29.42 "Hg4 mi
3:00 AM34 °FLight rain. Fog.No wind93%29.41 "Hg5 mi
2:00 AM34 °FLight rain. Fog.3 mph93%29.42 "Hg5 mi
Weather by CustomWeather, © 2014

See weather overviewHow to use our weather pages